CW3642 Weather Reports


Display with metric or nautical units.
time (UTC)temp
F
wind
direction
speed
MPH
gust
MPH
rain 1hr
in
rain 24hr
in
rain mn
in
humidity
%
barometer
mb
20260507210320 48 360 1.0 6.0 0.00 0.00 0.00 50 1010.1
20260507205850 48 360 3.0 6.0 0.00 0.00 0.00 51 1010.2
20260507205320 48 360 5.0 6.0 0.00 0.00 0.00 51 1010.3
20260507204819 48 360 8.0 6.0 0.00 0.00 0.00 53 1010.3
20260507204350 48 360 1.0 6.0 0.00 0.00 0.00 54 1010.3
20260507202819 49 360 4.0 6.0 0.00 0.00 0.00 55 1010.3
20260507202320 49 360 3.0 6.0 0.00 0.00 0.00 53 1010.4
20260507201320 49 360 2.0 6.0 0.00 0.00 0.00 51 1010.3
20260507200820 49 360 4.0 6.0 0.00 0.00 0.00 53 1010.4
20260507200320 49 360 0.0 6.0 0.00 0.00 0.00 54 1010.4
20260507195820 50 360 2.0 6.0 0.00 0.00 0.00 51 1010.5
20260507195320 50 360 2.0 6.0 0.00 0.00 0.00 52 1010.4
20260507194819 49 360 2.0 6.0 0.00 0.00 0.00 53 1010.4
20260507194320 49 360 9.0 6.0 0.00 0.00 0.00 51 1010.4
20260507193820 49 192 9.0 6.0 0.00 0.00 0.00 52 1010.4
20260507193319 49 360 5.0 6.0 0.00 0.00 0.00 51 1010.5
20260507192820 49 360 11.0 6.0 0.00 0.00 0.00 51 1010.5
20260507192320 49 360 1.0 6.0 0.00 0.00 0.00 52 1010.5
20260507191820 49 360 5.0 6.0 0.00 0.00 0.00 50 1010.6
20260507191320 50 360 5.0 6.0 0.00 0.00 0.00 51 1010.6
20260507190820 50 360 5.0 6.0 0.00 0.00 0.00 50 1010.7
20260507190320 50 360 2.0 6.0 0.00 0.00 0.00 52 1010.6
20260507185320 49 360 2.0 6.0 0.00 0.00 0.00 51 1010.7
20260507184819 49 360 1.0 6.0 0.00 0.00 0.00 52 1010.7
20260507184320 49 360 1.0 6.0 0.00 0.00 0.00 55 1010.8
20260507183320 49 360 3.0 6.0 0.00 0.00 0.00 53 1010.9
20260507182820 50 360 2.0 6.0 0.00 0.00 0.00 53 1010.9
20260507182320 49 360 2.0 6.0 0.00 0.00 0.00 54 1010.9
20260507181819 50 360 1.0 6.0 0.00 0.00 0.00 51 1010.9
20260507181320 50 360 10.0 6.0 0.00 0.00 0.00 53 1010.9
20260507180820 50 360 4.0 18.0 0.00 0.00 0.00 52 1011.0
20260507175836 49 238 2.0 6.0 0.00 0.00 0.00 53 1011.0
20260507175336 49 360 3.0 6.0 0.00 0.00 0.00 56 1011.0
20260507174836 48 360 2.0 6.0 0.00 0.00 0.00 56 1011.1
20260507174336 48 360 1.0 6.0 0.00 0.00 0.00 56 1011.1
20260507172831 49 360 1.0 0.0 0.00 0.00 0.00 54 1011.3
20260507172331 48 360 0.0 0.0 0.00 0.00 0.00 56 1011.2
20260507171831 48 360 5.0 0.0 0.00 0.00 0.00 57 1011.4
20260507171331 48 360 4.0 0.0 0.00 0.00 0.00 57 1011.4
20260507170331 48 360 3.0 0.0 0.00 0.00 0.00 54 1011.6
20260507164831 47 360 1.0 0.0 0.00 0.00 0.00 57 1011.8
20260507164331 47 360 4.0 0.0 0.00 0.00 0.00 57 1011.9
20260507163831 48 360 3.0 0.0 0.00 0.00 0.00 56 1011.9
20260507163331 47 360 0.0 0.0 0.00 0.00 0.00 59 1011.9
20260507162831 47 360 2.0 0.0 0.00 0.00 0.00 60 1011.9
20260507162331 47 360 3.0 0.0 0.00 0.00 0.00 59 1011.9
20260507160830 47 360 5.0 0.0 0.00 0.00 0.00 56 1012.0
20260507160331 47 360 2.0 0.0 0.00 0.00 0.00 57 1012.1
20260507155831 47 360 1.0 0.0 0.00 0.00 0.00 58 1012.1
20260507154830 46 360 2.0 0.0 0.00 0.00 0.00 58 1012.2
20260507153331 46 360 5.0 0.0 0.00 0.00 0.00 61 1012.2
20260507152831 46 360 2.0 0.0 0.00 0.00 0.00 63 1012.3
20260507152330 46 360 0.0 0.0 0.00 0.00 0.00 63 1012.3
20260507151830 46 360 3.0 0.0 0.00 0.00 0.00 64 1012.3
20260507151331 45 360 12.0 0.0 0.00 0.00 0.00 67 1012.3
20260507150831 45 360 2.0 0.0 0.00 0.00 0.00 68 1012.2
20260507150330 45 360 0.0 0.0 0.00 0.00 0.00 70 1012.3
20260507145831 44 360 2.0 0.0 0.00 0.00 0.00 69 1012.3
20260507145331 44 360 3.0 0.0 0.00 0.00 0.00 70 1012.3
20260507144830 44 360 4.0 0.0 0.00 0.00 0.00 70 1012.3
20260507144330 44 360 1.0 0.0 0.00 0.00 0.00 72 1012.2
20260507143831 43 360 8.0 0.0 0.00 0.00 0.00 71 1012.2
20260507143330 43 360 3.0 0.0 0.00 0.00 0.00 73 1012.2
20260507142831 43 360 2.0 0.0 0.00 0.00 0.00 74 1012.2
20260507141831 43 360 3.0 0.0 0.00 0.00 0.00 76 1012.3
20260507141331 43 188 4.0 0.0 0.00 0.00 0.00 77 1012.3
20260507140830 42 360 0.0 0.0 0.00 0.00 0.00 77 1012.4
20260507135827 41 360 0.0 0.0 0.00 0.00 0.00 80 1012.3
20260507135327 41 360 0.0 0.0 0.00 0.00 0.00 80 1012.2
20260507134327 41 360 2.0 0.0 0.00 0.00 0.00 79 1012.3
20260507133827 41 360 0.0 0.0 0.00 0.00 0.00 80 1012.3
20260507133327 41 360 0.0 0.0 0.00 0.00 0.00 79 1012.2
20260507132827 41 360 0.0 0.0 0.00 0.00 0.00 79 1012.2
20260507132327 41 360 0.0 0.0 0.00 0.00 0.00 80 1012.2
20260507131827 41 360 0.0 0.0 0.00 0.00 0.00 81 1012.1
20260507131327 41 360 0.0 0.0 0.00 0.00 0.00 82 1012.0
20260507130827 41 360 0.0 0.0 0.00 0.00 0.00 82 1011.9
20260507130327 40 360 0.0 0.0 0.00 0.00 0.00 83 1011.9
20260507125827 40 360 0.0 0.0 0.00 0.00 0.00 84 1012.0
20260507125327 40 360 0.0 0.0 0.00 0.00 0.00 85 1012.0
20260507124827 40 360 0.0 0.0 0.00 0.00 0.00 85 1012.0
20260507123327 39 360 0.0 0.0 0.00 0.00 0.00 87 1011.9
20260507122827 38 360 0.0 0.0 0.00 0.00 0.00 88 1012.0
20260507122327 38 360 0.0 0.0 0.00 0.00 0.00 90 1011.9
20260507121327 37 360 0.0 0.0 0.00 0.00 0.00 93 1011.9
20260507115827 35 360 0.0 0.0 0.00 0.00 0.00 94 1011.8
20260507115327 34 360 0.0 0.0 0.00 0.00 0.00 94 1011.7
20260507114827 34 360 0.0 0.0 0.00 0.00 0.00 94 1011.5
20260507113327 33 360 0.0 0.0 0.00 0.00 0.00 94 1011.5
20260507112827 32 360 0.0 0.0 0.00 0.00 0.00 94 1011.3
20260507112327 32 360 0.0 0.0 0.00 0.00 0.00 94 1011.3
20260507111827 32 360 0.0 0.0 0.00 0.00 0.00 94 1011.2
20260507110827 31 360 0.0 0.0 0.00 0.00 0.00 94 1011.1
20260507110327 31 360 0.0 0.0 0.00 0.00 0.00 94 1011.1
20260507105827 31 360 0.0 0.0 0.00 0.00 0.00 94 1011.1
20260507104827 31 360 0.0 0.0 0.00 0.00 0.00 94 1011.1
20260507104327 31 360 0.0 0.0 0.00 0.00 0.00 93 1011.0
20260507103327 31 360 0.0 0.0 0.00 0.00 0.00 93 1011.0
20260507102827 31 360 0.0 0.0 0.00 0.00 0.00 93 1011.0
20260507102327 31 360 0.0 0.0 0.00 0.00 0.00 93 1010.9
20260507101827 31 360 0.0 0.0 0.00 0.00 0.00 93 1010.9
20260507101327 31 360 0.0 0.0 0.00 0.00 0.00 93 1011.0
20260507095843 31 360 0.0 0.0 0.00 0.00 0.00 93 1011.0
20260507095343 31 360 0.0 0.0 0.00 0.00 0.00 93 1011.2
20260507094843 31 360 0.0 0.0 0.00 0.00 0.00 93 1011.2
20260507094343 31 360 0.0 0.0 0.00 0.00 0.00 93 1011.2
20260507093843 31 360 0.0 0.0 0.00 0.00 0.00 93 1011.2
20260507092843 31 360 0.0 0.0 0.00 0.00 0.00 93 1011.2
20260507092343 31 360 0.0 0.0 0.00 0.00 0.00 92 1011.3
20260507091843 31 360 0.0 0.0 0.00 0.00 0.00 92 1011.3
20260507091343 32 360 0.0 0.0 0.00 0.00 0.00 93 1011.4
20260507090843 32 360 0.0 0.0 0.00 0.00 0.00 92 1011.4
20260507085843 32 360 0.0 0.0 0.00 0.00 0.00 92 1011.4
20260507085343 32 360 0.0 0.0 0.00 0.00 0.00 92 1011.6
20260507084843 32 360 0.0 0.0 0.00 0.00 0.00 92 1011.6
20260507084343 32 360 0.0 0.0 0.00 0.00 0.00 92 1011.7
20260507083842 32 360 0.0 0.0 0.00 0.00 0.00 92 1011.7
20260507083342 32 360 0.0 0.0 0.00 0.00 0.00 92 1011.8
20260507082842 32 360 0.0 0.0 0.00 0.00 0.00 92 1011.8
20260507082343 32 360 0.0 0.0 0.00 0.00 0.00 92 1011.8
20260507081843 32 360 0.0 0.0 0.00 0.00 0.00 92 1011.8
20260507081343 32 360 0.0 0.0 0.00 0.00 0.00 92 1011.8
20260507080843 32 360 0.0 0.0 0.00 0.00 0.00 92 1011.8
20260507080343 32 360 0.0 0.0 0.00 0.00 0.00 92 1011.7
20260507075843 32 360 0.0 0.0 0.00 0.00 0.00 92 1011.7
20260507075343 32 360 0.0 0.0 0.00 0.00 0.00 92 1011.8
20260507074843 32 360 0.0 0.0 0.00 0.00 0.00 92 1011.8
20260507074343 32 360 0.0 0.0 0.00 0.00 0.00 92 1011.8
20260507073842 32 360 0.0 0.0 0.00 0.00 0.00 92 1011.8
20260507073343 32 360 0.0 0.0 0.00 0.00 0.00 92 1011.9
20260507072842 32 360 0.0 0.0 0.00 0.00 0.00 92 1011.8
20260507072343 32 360 0.0 0.0 0.00 0.00 0.00 92 1011.9
20260507071843 31 360 0.0 0.0 0.00 0.00 0.00 92 1011.9
20260507071343 31 360 0.0 0.0 0.00 0.00 0.00 92 1011.9
20260507065843 31 360 0.0 0.0 0.00 0.00 0.00 92 1011.9
20260507065343 31 360 0.0 0.0 0.00 0.00 0.00 92 1012.1
20260507063843 31 360 0.0 0.0 0.00 0.00 0.00 91 1012.2
20260507063342 31 360 0.0 0.0 0.00 0.00 0.00 91 1012.3
20260507062343 31 360 0.0 0.0 0.00 0.00 0.00 91 1012.4
20260507061342 30 360 0.0 0.0 0.00 0.00 0.00 90 1012.4
20260507060842 30 360 0.0 0.0 0.00 0.00 0.00 90 1012.5
20260507055825 31 360 0.0 0.0 0.00 0.00 0.00 89 1012.5
20260507054825 31 360 0.0 0.0 0.00 0.00 0.00 88 1012.5
20260507054326 31 360 0.0 0.0 0.00 0.00 0.00 87 1012.6
20260507053325 32 360 0.0 0.0 0.00 0.00 0.00 87 1012.7
20260507052825 32 360 0.0 0.0 0.00 0.00 0.00 86 1012.7
20260507052326 32 360 0.0 0.0 0.00 0.00 0.00 84 1012.8
20260507051825 33 360 0.0 0.0 0.00 0.00 0.00 84 1012.8
20260507051325 33 360 0.0 0.0 0.00 0.00 0.00 84 1012.9
20260507050825 33 360 0.0 0.0 0.00 0.00 0.00 84 1012.9
20260507050325 34 360 0.0 0.0 0.00 0.00 0.00 83 1013.0
20260507045825 34 360 0.0 0.0 0.00 0.00 0.00 83 1012.9
20260507045326 34 360 0.0 0.0 0.00 0.00 0.00 83 1012.9
20260507044825 34 360 0.0 0.0 0.00 0.00 0.00 83 1013.0
20260507044325 35 360 0.0 0.0 0.00 0.00 0.00 83 1013.0
20260507043825 35 360 0.0 0.0 0.00 0.00 0.00 83 1013.0
20260507043326 35 360 0.0 0.0 0.00 0.00 0.00 83 1013.0
20260507042825 35 360 0.0 0.0 0.00 0.00 0.00 83 1013.0
20260507042326 35 360 0.0 0.0 0.00 0.00 0.00 83 1013.1
20260507041825 36 360 0.0 0.0 0.00 0.00 0.00 83 1013.0
20260507041325 36 360 0.0 0.0 0.00 0.00 0.00 82 1012.9
20260507040825 36 360 0.0 0.0 0.00 0.00 0.00 82 1013.0
20260507040325 36 360 0.0 0.0 0.00 0.00 0.00 81 1012.9
20260507035825 36 360 0.0 0.0 0.00 0.00 0.00 81 1013.0
20260507035326 37 360 0.0 0.0 0.00 0.00 0.00 81 1012.9
20260507034825 37 360 0.0 0.0 0.00 0.00 0.00 80 1012.9
20260507034325 37 360 0.0 0.0 0.00 0.00 0.00 80 1013.0
20260507033826 37 360 0.0 0.0 0.00 0.00 0.00 80 1012.9
20260507033325 37 360 0.0 0.0 0.00 0.00 0.00 79 1013.0
20260507032825 37 360 0.0 0.0 0.00 0.00 0.00 80 1013.0
20260507032325 37 360 0.0 0.0 0.00 0.00 0.00 79 1013.0
20260507031826 37 360 0.0 0.0 0.00 0.00 0.00 79 1013.1
20260507031325 38 360 0.0 0.0 0.00 0.00 0.00 78 1013.0
20260507030826 38 360 0.0 0.0 0.00 0.00 0.00 78 1013.1
20260507030325 38 360 0.0 0.0 0.00 0.00 0.00 77 1013.0
20260507025826 38 360 0.0 0.0 0.00 0.00 0.00 77 1013.1
20260507025325 38 360 0.0 0.0 0.00 0.00 0.00 76 1013.1
20260507024825 38 360 0.0 0.0 0.00 0.00 0.00 76 1013.1
20260507024325 38 360 0.0 0.0 0.00 0.00 0.00 76 1013.0
20260507023825 38 360 0.0 0.0 0.00 0.00 0.00 76 1013.0
20260507023325 38 360 0.0 0.0 0.00 0.00 0.00 76 1013.0
20260507022825 38 360 0.0 0.0 0.00 0.00 0.00 76 1013.0
20260507021826 38 360 0.0 0.0 0.00 0.00 0.00 74 1012.9
20260507021325 38 360 0.0 0.0 0.00 0.00 0.00 74 1012.9
20260507015838 38 360 0.0 0.0 0.00 0.00 0.00 73 1012.9
20260507015339 39 360 0.0 0.0 0.00 0.00 0.00 73 1012.9
20260507014838 39 360 0.0 0.0 0.00 0.00 0.00 72 1012.9
20260507014338 39 360 0.0 0.0 0.00 0.00 0.00 72 1012.8
20260507013838 39 360 0.0 0.0 0.00 0.00 0.00 72 1012.8
20260507013338 39 360 0.0 0.0 0.00 0.00 0.00 71 1012.8
20260507012838 39 360 0.0 0.0 0.00 0.00 0.00 71 1012.7
20260507012339 39 360 0.0 0.0 0.00 0.00 0.00 69 1012.6
20260507011839 40 360 0.0 0.0 0.00 0.00 0.00 68 1012.7
20260507005838 40 360 0.0 0.0 0.00 0.00 0.00 67 1012.7
20260507005338 40 360 0.0 0.0 0.00 0.00 0.00 67 1012.6
20260507004838 40 360 0.0 0.0 0.00 0.00 0.00 65 1012.6
20260507004338 41 360 0.0 0.0 0.00 0.00 0.00 63 1012.6
20260507003339 41 360 0.0 0.0 0.00 0.00 0.00 64 1012.5
20260507002838 41 360 0.0 0.0 0.00 0.00 0.00 63 1012.5
20260507002338 41 360 0.0 0.0 0.00 0.00 0.00 62 1012.5
20260507001838 41 360 0.0 0.0 0.00 0.00 0.00 63 1012.4
20260507001338 41 360 0.0 0.0 0.00 0.00 0.00 62 1012.4
20260507000838 41 360 0.0 0.0 0.00 0.00 0.00 61 1012.4
20260507000338 41 360 0.0 0.0 0.00 0.00 0.00 61 1012.4
20260506235838 41 360 0.0 0.0 0.00 0.00 0.00 61 1012.3
20260506235338 41 360 0.0 0.0 0.00 0.00 0.00 60 1012.2
20260506234338 42 360 0.0 0.0 0.00 0.00 0.00 59 1012.3
20260506233838 42 360 0.0 0.0 0.00 0.00 0.00 59 1012.3
20260506232838 42 360 0.0 0.0 0.00 0.00 0.00 59 1012.4
20260506232338 42 360 0.0 0.0 0.00 0.00 0.00 58 1012.4
20260506231838 42 360 0.0 0.0 0.00 0.00 0.00 59 1012.4
20260506230838 42 360 0.0 0.0 0.00 0.00 0.00 57 1012.4
20260506225838 42 360 0.0 0.0 0.00 0.00 0.00 57 1012.4
20260506225338 42 360 0.0 0.0 0.00 0.00 0.00 56 1012.1
20260506224838 42 360 0.0 0.0 0.00 0.00 0.00 56 1012.2
20260506224338 42 360 0.0 0.0 0.00 0.00 0.00 57 1012.2
20260506223838 42 360 0.0 0.0 0.00 0.00 0.00 56 1012.1
20260506222338 42 360 0.0 0.0 0.00 0.00 0.00 56 1012.1
20260506221838 43 360 0.0 0.0 0.00 0.00 0.00 53 1012.2
20260506220838 43 360 0.0 9.0 0.00 0.00 0.00 55 1012.3
20260506215834 43 360 0.0 9.0 0.00 0.00 0.00 56 1012.2
20260506215334 44 360 0.0 9.0 0.00 0.00 0.00 51 1012.2
20260506214834 44 360 0.0 9.0 0.00 0.00 0.00 52 1012.2
20260506214334 44 360 0.0 9.0 0.00 0.00 0.00 51 1012.3
20260506213834 45 360 0.0 9.0 0.00 0.00 0.00 50 1012.3
20260506213334 45 360 0.0 9.0 0.00 0.00 0.00 51 1012.2
20260506212334 45 360 0.0 9.0 0.00 0.00 0.00 50 1012.2
20260506211834 46 360 4.0 9.0 0.00 0.00 0.00 49 1012.4
20260506211334 46 360 1.0 9.0 0.00 0.00 0.00 52 1012.3
20260506210834 46 360 0.0 9.0 0.00 0.00 0.00 50 1012.3